sat.trackr.live / text

‹ back to catalog

JILIN GAOFEN OBJECT F

NORAD 68696 · 2026-080F

PAYLOAD ACTIVE UNKNOWN

§ Identity

Operator
Country
PRC
Launch date
2026-04-14
Launch site
JSC
Launch vehicle
Mass (kg)
RCS (m²)

External: N2YO · Heavens-Above · Gunter

§ Orbital elements

Epoch: 2026-09-20T03:28:26.114880Z

Period
95.47 min
Inclination
97.6542°
Eccentricity
0.0013721
Mean motion
15.08294817 rev/d
Perigee alt
531.9 km
Apogee alt
550.9 km
Semi-major
6,919.5 km
B*
1.9255e-4
RAAN
338.5366°
Arg perigee
101.1764°
Mean anomaly
259.1007°
Rev number
2,394

§ Raw data

JILIN GAOFEN OBJECT F1 68696U 26080F   26263.14474670  .00002928  00000+0  19255-3 0  99982 68696  97.6542 338.5366 0013721 101.1764 259.1007 15.08294817 23945

JSON: /api/v1/satellites/68696 · /tle

For live sub-satellite position, see the globe view (requires WebGL).

§ Visibility from observer

Set your observer location to see the next 7 days of passes ≥ 10°. The values pass through the URL so the page stays shareable.

No JS? Fill the form by hand. The geolocation button needs JavaScript.